Anderson, SC

1:44 AM EDT on August 21, 2017 (GMT -0400)
Anderson Regional

Weather History for KAND - May, 2013

Change the Weather History Date:

Friday, May 24, 2013

  Actual Average Record
Temperature  
Mean Temperature 70 °F -  
Max Temperature 79 °F 82 °F 95 °F (1960)
Min Temperature 61 °F 60 °F 46 °F (2002)
Cooling Degree Days 5    
Growing Degree Days 20 (Base 50)    
Moisture  
Dew Point 47 °F    
Average Humidity 48    
Maximum Humidity 72    
Minimum Humidity 19    
Precipitation  
Precipitation 0.00 in - - ()
Sea Level Pressure  
Sea Level Pressure 30.04 in    
Wind  
Wind Speed 8 mph (NNW)    
Max Wind Speed 15 mph    
Max Gust Speed 16 mph    
Visibility 10 miles    
Events      
Averages and records for this station are not official NWS values.
T = Trace of Precipitation, MM = Missing Value Source: NWS Daily Summary

Daily Weather History Graph

Daily Weather History Graph

Search for Another Location

Airport or City:

Trip Planner

Search our weather history database for the weather conditions in past years. The results will help you decide how hot, cold, wet, or windy it might be!

Date:

Astronomy

May. 24, 2013 Rise Set
Actual Time 6:22 AM EDT 8:33 PM EDT
Civil Twilight 5:54 AM EDT 9:01 PM EDT
Nautical Twilight 5:19 AM EDT 9:36 PM EDT
Astronomical Twilight 4:41 AM EDT 10:14 PM EDT
Moon 8:15 PM EDT (5/24) 5:51 AM EDT (5/24)
Length of Visible Light 15h 07m
Length of Day
14h 10m
Full, 100% of the Moon is Illuminated
May 24
Full
May 25
Full
May 31
Last Quarter
Jun 8
New
Jun 16
First Quarter

Hourly Weather History & Observations

Time (EDT) Temp. Dew Point Humidity Pressure Visibility Wind Dir Wind Speed Gust Speed Precip Events Conditions
12:56 AM 68.0 °F 55.0 °F 63% 29.91 in 10.0 mi West 6.9 mph - N/A   Clear
1:56 AM 64.9 °F 55.0 °F 70% 29.92 in 10.0 mi West 6.9 mph - N/A   Clear
2:56 AM 64.9 °F 55.0 °F 70% 29.92 in 10.0 mi West 6.9 mph - N/A   Clear
3:56 AM 64.0 °F 54.0 °F 70% 29.91 in 10.0 mi West 8.1 mph - N/A   Clear
4:56 AM 63.0 °F 54.0 °F 72% 29.93 in 10.0 mi NW 3.5 mph - N/A   Clear
5:56 AM 62.1 °F 53.1 °F 72% 29.92 in 10.0 mi NW 5.8 mph - N/A   Clear
6:56 AM 63.0 °F 53.1 °F 70% 29.95 in 10.0 mi WNW 10.4 mph - N/A   Clear
7:56 AM 64.9 °F 54.0 °F 68% 29.99 in 10.0 mi WNW 9.2 mph - N/A   Clear
8:56 AM 69.1 °F 54.0 °F 58% 30.01 in 10.0 mi NW 12.7 mph - N/A   Clear
9:56 AM 71.1 °F 54.0 °F 55% 30.03 in 10.0 mi WNW 10.4 mph - N/A   Clear
10:56 AM 73.0 °F 50.0 °F 44% 30.06 in 10.0 mi WNW 15.0 mph - N/A   Partly Cloudy
11:56 AM 73.9 °F 50.0 °F 43% 30.07 in 10.0 mi WNW 12.7 mph - N/A   Mostly Cloudy
12:56 PM 75.0 °F 48.9 °F 40% 30.08 in 10.0 mi NNW 9.2 mph - N/A   Partly Cloudy
1:56 PM 75.9 °F 48.9 °F 38% 30.08 in 10.0 mi NNW 8.1 mph - N/A   Partly Cloudy
2:56 PM 75.9 °F 46.9 °F 36% 30.08 in 10.0 mi NE 8.1 mph - N/A   Scattered Clouds
3:56 PM 78.1 °F 45.0 °F 31% 30.08 in 10.0 mi Variable 4.6 mph - N/A   Clear
4:56 PM 78.1 °F 39.9 °F 25% 30.08 in 10.0 mi Variable 3.5 mph - N/A   Clear
5:56 PM 78.1 °F 34.0 °F 20% 30.09 in 10.0 mi NNE 5.8 mph 16.1 mph N/A   Clear
6:56 PM 75.9 °F 30.9 °F 19% 30.10 in 10.0 mi NNE 8.1 mph - N/A   Clear
7:56 PM 73.0 °F 36.0 °F 26% 30.12 in 10.0 mi NNE 4.6 mph - N/A   Clear
8:56 PM 68.0 °F 41.0 °F 37% 30.14 in 10.0 mi NE 4.6 mph - N/A   Clear
9:56 PM 64.9 °F 39.0 °F 39% 30.16 in 10.0 mi NE 8.1 mph - N/A   Clear
10:56 PM 63.0 °F 37.9 °F 40% 30.18 in 10.0 mi NNE 5.8 mph - N/A   Clear
11:56 PM 61.0 °F 37.0 °F 41% 30.19 in 10.0 mi North 4.6 mph - N/A   Clear